Theta_e
302 303 303 303 302 302 301 301 300 299 299 298 298 297 297 296 296 295 294 294 294 294 294 294 294 294 294 294 294 293 292 290 289 289 288 288 288 287 287 287 287 287
303 302 302 302 302 302 301 301 300 299 298 298 297 297 296 296 295 294 294 294 294 294 294 294 294 294 294 294 294 293 291 290 289 288 288 288 287 287 287 287 287 286
303 303 303 303 303 302 302 301 300 299 298 297 296 296 295 295 294 294 293 294 294 294 294 294 294 294 294 293 293 292 290 289 289 288 288 288 287 287 287 286 286 286
305 305 305 305 303 302 301 300 300 299 298 297 296 295 295 294 294 293 293 293 293 293 294 294 293 293 293 293 293 291 290 289 288 288 288 287 287 287 286 286 286 286
306 306 305 305 304 302 300 300 300 300 299 297 296 295 294 294 293 293 293 293 293 293 293 293 293 293 293 293 292 290 289 288 288 287 287 287 286 286 286 286 286 286
305 305 305 304 304 303 301 300 299 299 299 298 296 295 294 293 293 293 293 293 293 293 293 293 293 293 293 292 291 290 289 288 287 287 287 286 286 286 286 286 286 286
306 304 303 303 302 302 301 300 298 298 298 298 296 295 294 293 293 293 292 292 293 293 293 293 293 293 292 292 290 289 288 288 287 287 287 286 286 286 286 286 286 286
305 303 302 301 301 300 300 299 298 297 297 297 296 295 294 293 293 292 292 292 292 292 293 293 292 292 292 291 290 289 288 287 287 287 286 286 286 286 286 285 285 286
304 303 302 300 299 299 299 298 297 296 295 296 295 294 293 292 292 292 292 292 292 292 292 292 292 292 292 290 289 288 288 287 287 286 286 286 286 286 285 285 285 286
304 303 301 300 299 298 297 296 295 294 293 294 294 293 292 292 291 292 292 292 292 292 292 292 292 292 291 290 289 288 287 287 287 286 286 286 286 286 285 285 285 285
304 303 301 300 300 299 298 296 295 294 293 292 292 292 292 291 291 291 291 291 292 292 292 292 292 292 291 289 288 288 287 287 286 286 286 286 286 285 285 285 285 285
303 303 302 301 300 299 298 297 295 294 292 292 291 291 291 290 290 291 291 291 291 292 292 292 292 291 290 289 288 287 287 287 286 286 286 286 285 285 285 285 285 284
303 303 302 301 300 299 298 297 295 294 293 292 291 290 290 290 290 290 290 291 291 291 291 291 291 291 290 288 288 287 287 286 286 286 285 285 285 285 284 284 284 284
303 302 301 300 299 298 297 296 295 294 292 291 291 290 290 290 290 290 290 290 291 291 291 291 291 290 289 288 287 287 287 286 286 285 285 285 285 284 284 284 284 284
302 301 300 299 298 297 296 296 295 293 292 291 290 289 289 289 289 289 290 290 291 291 291 290 290 289 288 287 287 287 286 286 286 285 285 285 285 284 284 284 284 283
302 301 300 299 297 297 296 295 294 292 291 290 289 289 289 289 289 289 289 290 290 290 290 290 289 288 287 287 287 286 286 286 286 285 285 285 285 284 284 284 284 283
301 300 299 298 297 296 295 294 293 292 291 290 289 289 289 288 288 289 289 290 290 290 290 289 289 287 287 287 286 286 286 286 286 285 285 285 284 284 284 284 283 283
301 300 299 298 297 296 295 294 292 291 291 290 289 289 289 288 288 289 289 289 290 289 289 289 288 287 286 286 286 286 286 286 286 286 286 285 285 284 284 283 282 282
301 300 299 298 297 295 294 293 292 291 291 290 290 289 288 288 288 288 289 289 289 289 289 288 287 286 286 286 286 286 286 286 287 287 286 285 284 283 283 282 282 281
301 300 299 297 296 295 294 293 292 291 290 290 289 289 288 288 288 288 289 289 289 289 288 287 286 286 287 286 286 286 286 286 287 286 286 285 284 283 282 282 281 280
301 300 298 297 295 294 293 292 291 290 290 289 289 289 288 288 288 288 288 288 288 288 287 286 286 287 287 286 286 286 286 286 286 285 285 284 283 282 281 281 280 280
301 299 298 296 295 294 293 292 291 290 290 289 289 288 288 288 288 288 288 288 288 287 286 287 287 287 286 286 286 286 285 285 285 285 284 283 282 281 280 280 280 280
301 299 297 296 295 294 293 292 291 290 290 289 289 288 288 287 287 288 288 288 287 286 287 287 287 287 286 286 285 285 285 285 285 284 283 282 281 280 280 280 280 280
300 299 297 296 295 294 293 292 291 290 289 289 289 288 287 287 287 288 287 287 287 286 287 287 287 287 286 286 285 285 284 284 284 283 282 281 280 280 280 279 280 280
300 298 297 296 295 294 293 291 291 290 289 288 288 287 287 287 287 287 287 286 286 286 286 287 287 287 286 286 285 285 284 284 283 282 281 280 280 280 279 280 280 280
299 298 297 296 295 293 292 291 290 290 289 288 287 286 286 287 287 286 286 286 286 286 286 287 287 286 286 286 285 284 283 283 282 281 281 280 280 280 280 280 280 279
Wind_Speed
41 41 40 40 40 40 41 41 42 42 42 42 41 41 40 38 37 36 34 31 28 25 23 21 19 19 20 21 21 21 22 22 22 23 23 22 20 18 16 14 14 15
41 41 42 42 42 41 41 42 42 42 42 41 40 39 38 37 36 36 34 31 28 25 23 21 20 20 20 21 21 22 22 23 23 23 23 21 19 18 16 15 15 16
41 41 41 41 41 42 42 41 41 42 42 41 40 39 38 37 37 36 35 32 29 26 24 22 21 20 21 21 22 22 22 23 23 23 22 20 19 17 16 15 16 17
41 40 40 40 41 42 43 42 41 41 42 42 41 40 39 38 38 37 36 33 30 27 24 22 21 21 21 22 22 22 23 23 23 22 22 20 18 17 16 16 17 18
41 41 41 41 41 43 44 44 42 41 42 43 42 42 41 40 39 38 37 34 31 28 25 23 22 22 22 22 22 23 23 23 23 22 21 19 18 18 17 17 18 19
43 44 44 43 43 43 44 45 44 42 42 43 43 43 43 42 41 39 37 35 32 29 26 24 23 22 22 23 23 23 23 23 22 21 20 19 18 18 18 18 19 20
46 46 46 46 46 45 45 46 47 45 43 43 44 44 44 43 42 40 38 36 32 29 26 24 24 23 23 24 24 24 24 23 21 21 20 20 19 19 18 19 20 21
48 49 49 49 49 48 47 48 48 48 45 44 44 45 45 44 43 41 39 37 33 30 27 26 24 24 24 25 24 24 24 22 21 21 20 20 20 19 19 19 20 22
50 50 50 51 50 50 50 49 49 49 48 46 45 45 45 44 43 42 40 38 34 31 28 27 25 25 25 25 25 25 24 22 21 21 20 20 20 20 19 19 21 24
51 51 52 52 52 51 51 50 50 50 50 48 46 45 45 45 44 42 40 38 35 32 29 27 26 26 26 26 26 25 23 22 21 21 21 21 21 21 20 21 23 25
52 52 54 54 53 52 51 50 51 51 50 49 47 46 45 45 45 43 41 39 35 32 30 28 27 27 27 27 26 25 23 22 21 21 21 22 21 21 21 23 24 26
51 52 53 54 53 52 51 51 51 51 51 50 49 47 46 46 46 44 42 39 36 33 31 29 29 28 28 27 26 25 23 22 21 21 21 21 21 22 22 24 25 27
49 50 51 52 52 52 51 51 51 51 51 50 49 48 47 46 46 45 42 39 36 34 32 30 30 29 28 27 25 24 22 21 21 20 21 21 21 22 23 24 27 28
47 48 49 51 51 51 51 51 51 51 51 50 50 48 47 47 46 45 42 39 37 34 32 31 30 29 28 26 24 22 21 20 20 19 20 20 21 22 23 25 28 29
46 47 48 49 50 51 51 51 50 50 50 50 49 48 47 47 46 44 42 40 37 35 33 31 30 28 26 24 22 21 20 19 19 19 19 20 21 23 24 26 28 30
45 46 47 48 49 50 50 50 50 50 50 49 49 47 47 47 46 45 42 40 37 35 32 31 30 28 25 23 21 20 19 18 18 18 19 20 21 23 24 26 28 30
44 44 46 47 48 48 48 49 49 49 49 49 48 47 48 48 47 46 44 41 38 35 33 31 29 27 24 22 20 19 17 16 17 18 19 20 22 24 25 27 28 30
43 44 45 46 47 47 48 48 48 49 49 48 48 48 49 49 48 47 44 41 38 35 33 31 28 26 23 21 19 17 16 17 17 18 20 23 24 25 26 27 29 29
42 43 44 45 46 47 47 48 48 48 49 48 48 48 49 50 49 47 44 41 38 35 33 30 27 25 21 18 18 17 16 17 19 21 23 24 25 25 26 27 29 29
42 42 43 45 45 46 47 47 48 48 47 47 47 48 50 50 49 46 44 40 37 34 32 29 25 23 20 18 18 17 16 17 19 21 23 24 24 25 26 27 27 27
42 42 44 45 45 46 47 47 47 47 47 47 47 48 50 50 48 46 43 39 36 33 30 26 24 21 20 19 18 17 16 17 19 21 23 24 24 25 25 27 26 26
42 43 44 44 45 46 46 47 47 47 47 46 46 48 49 50 48 46 42 39 36 32 28 25 23 21 20 19 18 17 17 18 19 21 23 23 24 24 25 25 25 24
42 43 44 44 45 45 46 47 47 47 47 47 47 49 51 51 49 45 42 39 35 32 28 26 24 21 19 19 18 17 17 18 20 21 22 23 23 24 24 24 23 23
42 43 43 43 44 44 45 46 46 46 47 47 48 50 51 52 49 46 43 39 34 31 28 25 23 21 20 19 18 17 18 19 20 21 22 22 23 23 23 23 23 21
41 42 42 43 44 44 45 45 45 45 46 47 48 50 51 51 49 46 42 38 34 31 28 25 22 21 20 20 18 18 19 20 20 21 21 22 22 23 23 22 21 20
40 41 42 43 43 43 44 45 45 45 45 47 49 51 51 50 48 44 41 37 34 31 27 24 23 21 20 20 19 20 20 20 20 20 20 21 21 22 22 21 20 19
Wind_Direction
230 232 233 235 237 239 241 241 242 241 240 240 240 240 240 239 238 236 234 234 235 237 241 245 251 257 263 268 272 274 276 280 285 288 289 291 294 297 302 305 308 310
230 232 234 236 237 239 240 241 243 243 242 241 241 241 239 238 236 235 233 233 235 237 240 245 251 257 263 268 271 273 276 280 284 286 287 291 294 297 301 304 307 309
229 231 233 235 237 238 239 240 241 243 243 242 241 240 238 235 234 233 232 233 234 237 240 245 251 257 262 267 270 272 275 279 283 284 287 291 293 295 298 300 303 306
228 231 233 235 238 239 240 239 240 241 241 240 239 237 236 234 232 231 231 232 234 237 240 245 250 256 261 265 268 271 273 277 281 283 286 290 290 291 293 296 300 303
229 231 233 235 237 238 239 239 240 241 241 240 238 236 234 233 232 231 231 232 233 236 240 244 250 255 259 264 267 269 272 276 278 281 285 286 285 287 290 292 296 300
232 233 234 235 236 237 239 239 239 240 240 240 238 235 233 232 232 232 231 232 234 236 240 244 249 254 258 263 265 267 271 273 276 280 282 283 282 283 287 290 294 300
234 234 235 236 236 237 238 239 239 239 239 239 237 235 234 232 231 231 231 232 233 235 239 243 247 253 257 261 263 266 269 271 274 278 279 280 280 282 286 290 295 299
237 237 237 237 237 237 238 238 238 238 237 237 236 234 233 232 230 230 229 230 231 234 238 241 246 251 255 258 261 264 267 270 273 275 276 277 278 281 285 289 293 296
239 239 239 238 238 238 238 238 238 238 236 235 234 233 232 230 229 228 228 228 230 232 236 239 244 249 253 256 259 262 266 270 272 273 275 277 279 282 286 289 292 294
241 241 240 239 239 238 238 238 238 237 236 235 233 232 230 229 227 226 227 227 228 230 233 237 242 247 252 255 258 261 265 269 272 273 274 276 279 283 287 290 291 294
244 244 242 241 240 239 239 238 238 237 236 235 233 231 229 227 226 224 225 225 227 229 231 236 241 245 249 253 256 260 264 268 270 271 273 276 281 285 287 290 292 294
246 246 246 244 241 240 239 238 238 237 235 234 233 230 227 226 225 225 225 225 226 228 231 235 240 244 248 251 254 258 262 266 267 269 273 277 281 285 288 291 294 296
248 248 248 246 242 240 239 238 237 236 235 234 232 230 227 225 225 224 224 225 225 227 230 234 239 242 246 249 252 257 260 263 266 269 274 279 283 287 291 294 296 296
249 248 247 245 241 239 238 238 237 236 234 233 231 229 227 225 224 224 223 224 225 227 230 233 238 241 244 247 250 255 259 263 268 272 277 283 286 290 293 295 296 296
248 246 244 242 239 238 238 237 237 235 233 231 229 228 226 224 223 223 224 224 224 226 229 233 237 240 243 246 249 255 259 263 270 276 282 287 289 292 296 296 296 296
245 244 243 241 239 238 237 236 235 233 231 229 228 226 224 223 221 221 222 223 224 226 229 232 237 240 242 245 249 254 259 265 274 280 284 289 292 295 297 297 297 297
244 243 242 241 239 237 236 234 233 232 230 228 226 224 223 221 220 220 221 222 223 226 229 233 236 238 240 244 248 253 259 267 274 281 287 291 294 297 298 299 298 298
244 243 242 240 239 237 235 234 232 231 229 228 225 224 222 221 220 220 220 221 222 225 228 232 235 236 238 242 247 253 261 268 276 286 292 295 296 299 301 300 299 300
243 243 242 240 238 237 235 233 232 230 229 227 225 223 222 220 219 219 219 220 222 224 228 230 231 233 236 242 247 253 261 272 283 290 292 294 297 298 299 298 298 301
243 242 241 239 237 236 234 232 231 230 228 226 224 222 220 219 218 218 219 220 222 224 227 228 228 231 236 242 245 251 261 273 282 286 288 292 294 295 296 297 297 299
242 241 239 237 236 234 233 231 230 228 226 224 222 221 220 219 218 218 219 220 222 223 224 225 227 231 236 241 245 251 261 270 277 283 286 289 291 292 293 293 294 295
241 240 237 235 234 233 231 230 229 227 226 223 221 220 219 217 217 218 219 220 221 221 222 223 226 231 236 241 247 252 260 268 274 280 283 285 287 289 289 289 292 295
241 239 236 235 234 232 231 230 228 227 225 222 220 217 215 215 215 216 217 219 220 219 219 222 225 230 236 242 247 251 258 267 272 275 279 282 284 286 287 288 291 296
241 239 237 236 235 233 232 229 227 226 224 222 220 217 214 213 213 214 216 217 217 217 217 220 223 228 235 240 246 252 258 264 269 272 276 280 282 284 285 287 292 299
242 240 239 238 236 234 232 229 227 225 224 222 220 217 214 212 212 213 214 214 213 213 213 216 221 226 233 239 245 250 255 261 266 270 274 278 280 281 283 288 296 304
241 240 240 239 237 235 232 229 227 225 222 220 218 215 212 212 212 212 212 211 210 210 211 215 220 225 232 239 243 247 252 257 263 267 272 275 276 278 283 291 299 306